This is the latest recevied weather packets stored in our database for station/object N8TWM-13. If no packets are shown the sender has not sent any weather packets the latest 1 day(s).
| Time | Temp. | Humidity | Pressure | Rain* | Wind** | Luminosity | Snow |
|---|---|---|---|---|---|---|---|
| 1778072920 | 6.67° C | 92% | 1010.9 hPa | 0 mm | - | 87 W/m² | - |
| 1778072616 | 6.67° C | 93% | 1010.5 hPa | 0 mm | - | 89 W/m² | - |
| 1778072314 | 6.67° C | 93% | 1010.7 hPa | 0 mm | - | 82 W/m² | - |
| 1778071710 | 6.67° C | 94% | 1010.2 hPa | 0 mm | - | 73 W/m² | - |
| 1778067777 | 5.56° C | 97% | 1009.5 hPa | 0 mm | - | 70 W/m² | - |
| 1778067475 | 5.56° C | 97% | 1009.3 hPa | 0 mm | - | 30 W/m² | - |
| 1778066566 | 5.56° C | 97% | 1009.6 hPa | 0 mm | - | 18 W/m² | - |
| 1778065658 | 6.11° C | 97% | 1009.4 hPa | 0 mm | - | 4 W/m² | - |
| 1778065356 | 6.11° C | 97% | 1009.1 hPa | 0 mm | - | 5 W/m² | - |
| 1778065052 | 6.11° C | 97% | 1008.4 hPa | 0 mm | - | 7 W/m² | - |
| 1778064447 | 6.11° C | 97% | 1008.8 hPa | 0 mm | - | 3 W/m² | - |
| 1778063538 | 6.11° C | 97% | 1009.1 hPa | 0 mm | - | 0 W/m² | - |
| 1778061421 | 6.67° C | 97% | 1008 hPa | 1.27 mm | - | 0 W/m² | - |
| 1778061118 | 6.67° C | 97% | 1007.6 hPa | 1.27 mm | - | 0 W/m² | - |
| 1778060815 | 6.67° C | 97% | 1007.6 hPa | 0 mm | - | 0 W/m² | - |
| 1778060513 | 6.67° C | 97% | 1007.6 hPa | 0 mm | - | 0 W/m² | - |
| 1778059908 | 6.67° C | 97% | 1007.3 hPa | 0 mm | - | 0 W/m² | - |
| 1778059606 | 6.67° C | 97% | 1007.8 hPa | 0 mm | - | 0 W/m² | - |
| 1778059303 | 6.67° C | 97% | 1007.7 hPa | 0 mm | - | 0 W/m² | - |
| 1778059001 | 6.67° C | 97% | 1008.1 hPa | 0 mm | - | 0 W/m² | - |
| 1778058698 | 6.67° C | 97% | 1008.1 hPa | 1.78 mm | - | 0 W/m² | - |
| 1778058396 | 6.67° C | 97% | 1008.5 hPa | 1.78 mm | - | 0 W/m² | - |
| 1778058092 | 6.67° C | 97% | 1008.8 hPa | 0 mm | - | 0 W/m² | - |
| 1778057789 | 6.67° C | 97% | 1008.6 hPa | 1.27 mm | - | 0 W/m² | - |
| 1778057182 | 6.67° C | 97% | 1008.6 hPa | 1.78 mm | - | 0 W/m² | - |
* Rain latest hour (hover to see other rain measurements)
** Current wind speed in m/s (hover to see current wind gust speed)